User: anonymous   Login
Location: Unspecified
(0.0000°N, 0.0000°E)
Time: 15:50:42
(UTC+00:00)
Language:

HST - Orbit

View from above orbital plane
View from above orbital plane
View from above satellite
View from above satellite

Ground track
Ground track

The orbit data is extracted from the following two-line orbital elements,

1 20580U 90037B   14302.15763157  .00004947  00000-0  31904-3 0  1456
2 20580 028.4699 236.1368 0002944 280.1714 188.1305 15.06037691144931
Epoch (UTC): 29 October 2014 03:46:59
Eccentricity: 0.0002944
inclination: 28.4699°
perigee height: 546 km
apogee height: 550 km
right ascension of ascending node: 236.1368°
argument of perigee: 280.1714°
revolutions per day: 15.06037691
mean anomaly at epoch: 188.1305°
orbit number at epoch: 14493

The dashed part of the orbit path shows where the satellite is in the earth's shadow,  

DLR